W8BS Weather Reports


Display with metric or nautical units.
time (UTC)temp
F
wind
direction
speed
MPH
gust
MPH
rain 1hr
in
rain 24hr
in
rain mn
in
humidity
%
barometer
mb
20260504202245 68 175 5.0 7.0 0.00 0.00 0.00 51 1010.1
20260504201741 69 175 1.0 2.0 0.00 0.00 0.00 50 1010.4
20260504201238 68 178 0.0 2.0 0.00 0.00 0.00 50 1010.2
20260504200737 69 211 6.0 8.0 0.00 0.00 0.00 49 1010.2
20260504200232 69 187 1.0 5.0 0.00 0.00 0.00 48 1010.3
20260504195729 71 272 7.0 9.0 0.00 0.00 0.00 47 1010.0
20260504195225 70 203 1.0 2.0 0.00 0.00 0.00 48 1010.0
20260504194722 70 190 1.0 2.0 0.00 0.00 0.00 49 1010.0
20260504194218 69 192 3.0 8.0 0.00 0.00 0.00 48 1010.1
20260504193715 70 213 3.0 7.0 0.00 0.00 0.00 47 1010.1
20260504193212 69 220 2.0 7.0 0.00 0.00 0.00 48 1010.1
20260504192710 70 263 5.0 6.0 0.00 0.00 0.00 48 1010.1
20260504192208 70 181 3.0 6.0 0.00 0.00 0.00 47 1010.3
20260504191707 70 211 3.0 13.0 0.00 0.00 0.00 48 1010.4
20260504191203 69 186 1.0 7.0 0.00 0.00 0.00 50 1010.4
20260504190658 70 224 3.0 10.0 0.00 0.00 0.00 48 1010.4
20260504190155 71 171 7.0 10.0 0.00 0.00 0.00 47 1010.6
20260504185651 69 190 1.0 6.0 0.00 0.00 0.00 49 1010.3
20260504185148 68 241 6.0 9.0 0.00 0.00 0.00 49 1010.6
20260504184644 70 227 7.0 10.0 0.00 0.00 0.00 49 1010.7
20260504184139 70 198 3.0 8.0 0.00 0.00 0.00 49 1010.6
20260504183636 69 190 5.0 8.0 0.00 0.00 0.00 49 1010.9
20260504183134 69 220 4.0 6.0 0.00 0.00 0.00 50 1011.0
20260504182631 68 225 4.0 9.0 0.00 0.00 0.00 52 1011.0
20260504182129 68 203 2.0 7.0 0.00 0.00 0.00 53 1011.2
20260504181626 68 231 4.0 8.0 0.00 0.00 0.00 53 1011.1
20260504181123 67 238 10.0 11.0 0.00 0.00 0.00 53 1011.3
20260504180623 68 253 8.0 11.0 0.00 0.00 0.00 52 1011.2
20260504180121 69 238 2.0 6.0 0.00 0.00 0.00 53 1011.3
20260504175618 68 204 5.0 7.0 0.00 0.00 0.00 54 1011.3
20260504175114 66 154 3.0 9.0 0.00 0.00 0.00 56 1011.6
20260504174613 66 214 3.0 5.0 0.00 0.00 0.00 57 1011.5
20260504174109 66 181 1.0 5.0 0.00 0.00 0.00 57 1011.5
20260504173606 65 174 4.0 9.0 0.00 0.00 0.00 58 1011.3
20260504173104 66 247 3.0 9.0 0.00 0.00 0.00 57 1011.7
20260504172559 64 195 2.0 6.0 0.00 0.00 0.00 59 1011.5
20260504172056 63 201 1.0 6.0 0.00 0.00 0.00 60 1011.8
20260504171553 62 212 5.0 7.0 0.00 0.00 0.00 60 1011.8
20260504171050 63 240 5.0 6.0 0.00 0.00 0.00 60 1012.2
20260504170545 64 169 2.0 9.0 0.00 0.00 0.00 59 1011.9
20260504150930 61 253 7.0 11.0 0.00 0.00 0.00 55 1013.1
20260504150426 62 218 4.0 8.0 0.00 0.00 0.00 54 1013.0
20260504140853 60 251 4.0 8.0 0.00 0.00 0.00 53 1013.0
20260504140349 61 178 2.0 7.0 0.00 0.00 0.00 53 1013.0
20260504130818 58 186 2.0 7.0 0.00 0.00 0.00 53 1012.6
20260504130314 57 173 1.0 6.0 0.00 0.00 0.00 53 1012.6
20260504120237 51 198 3.0 3.0 0.00 0.00 0.00 61 1013.1
20260504110705 48 196 1.0 2.0 0.00 0.00 0.00 70 1013.4
20260504110201 48 193 1.0 2.0 0.00 0.00 0.00 73 1013.4
20260504100119 45 182 0.0 0.0 0.00 0.00 0.00 83 1013.7
20260504081512 47 188 1.0 2.0 0.00 0.00 0.00 71 1013.9
20260504081008 47 185 0.0 1.0 0.00 0.00 0.00 69 1014.0
20260504080504 47 186 1.0 2.0 0.00 0.00 0.00 69 1014.0
20260504050317 45 184 0.0 1.0 0.00 0.00 0.00 72 1014.2
20260504045809 45 184 0.0 0.0 0.00 0.00 0.00 70 1014.6
20260504045309 45 184 0.0 0.0 0.00 0.00 0.00 67 1014.6
20260504044806 45 184 0.0 0.0 0.00 0.00 0.00 66 1014.5
20260504044304 46 184 0.0 0.0 0.00 0.00 0.00 67 1014.3
20260504043801 46 184 0.0 0.0 0.00 0.00 0.00 64 1014.4
20260504043258 46 184 0.0 0.0 0.00 0.00 0.00 61 1014.6
20260504042755 46 184 0.0 0.0 0.00 0.00 0.00 63 1014.2
20260504042251 46 184 0.0 0.0 0.00 0.00 0.00 62 1014.6
20260504041748 46 184 0.0 0.0 0.00 0.00 0.00 65 1014.6
20260504041244 46 184 0.0 0.0 0.00 0.00 0.00 65 1014.4
20260504040740 46 184 0.0 0.0 0.00 0.00 0.00 63 1014.5
20260504040238 46 184 0.0 0.0 0.00 0.00 0.00 62 1014.4
20260504035733 46 184 0.0 0.0 0.00 0.00 0.00 65 1014.4
20260504035231 46 184 0.0 0.0 0.00 0.00 0.00 65 1014.7
20260504034729 46 184 0.0 0.0 0.00 0.00 0.00 64 1014.6
20260504034225 46 184 0.0 0.0 0.00 0.00 0.00 64 1014.5
20260504033723 46 184 0.0 0.0 0.00 0.00 0.00 61 1014.6
20260504033220 46 185 1.0 1.0 0.00 0.00 0.00 67 1014.5
20260504032717 46 184 0.0 0.0 0.00 0.00 0.00 63 1014.6
20260504032214 46 184 0.0 0.0 0.00 0.00 0.00 65 1014.5
20260504031711 46 184 0.0 0.0 0.00 0.00 0.00 64 1014.8
20260504031209 46 184 0.0 0.0 0.00 0.00 0.00 62 1014.8
20260504030704 46 184 0.0 0.0 0.00 0.00 0.00 61 1014.7
20260504030202 46 185 0.0 0.0 0.00 0.00 0.00 61 1014.5
20260504025658 46 185 0.0 1.0 0.00 0.00 0.00 60 1014.7
20260504025154 46 185 0.0 1.0 0.00 0.00 0.00 60 1014.5
20260504024652 46 185 1.0 1.0 0.00 0.00 0.00 63 1014.7
20260504024148 46 184 0.0 0.0 0.00 0.00 0.00 59 1014.9
20260504023645 46 184 0.0 0.0 0.00 0.00 0.00 64 1014.8
20260504023141 46 184 0.0 1.0 0.00 0.00 0.00 62 1014.8
20260504022637 46 184 0.0 1.0 0.00 0.00 0.00 60 1014.8
20260504022133 46 184 0.0 0.0 0.00 0.00 0.00 58 1014.7
20260504021632 46 184 0.0 0.0 0.00 0.00 0.00 64 1014.7
20260504021128 46 184 0.0 0.0 0.00 0.00 0.00 61 1014.8
20260504020625 47 184 0.0 0.0 0.00 0.00 0.00 60 1014.5
20260504020121 47 185 0.0 0.0 0.00 0.00 0.00 59 1014.7
20260504015618 47 184 0.0 1.0 0.00 0.00 0.00 61 1014.8
20260504015114 47 184 0.0 0.0 0.00 0.00 0.00 58 1014.7
20260504014610 47 185 0.0 0.0 0.00 0.00 0.00 62 1014.9
20260504014107 47 185 0.0 0.0 0.00 0.00 0.00 57 1014.8
20260504013605 47 185 0.0 0.0 0.00 0.00 0.00 57 1015.0
20260504013102 47 185 0.0 1.0 0.00 0.00 0.00 59 1014.6
20260504012559 47 184 0.0 1.0 0.00 0.00 0.00 61 1014.6
20260504012057 47 185 0.0 0.0 0.00 0.00 0.00 55 1014.6
20260504011553 46 185 0.0 0.0 0.00 0.00 0.00 61 1014.5
20260504011049 46 185 0.0 0.0 0.00 0.00 0.00 58 1014.7
20260504010545 46 185 0.0 0.0 0.00 0.00 0.00 58 1014.6
20260504010042 46 185 0.0 0.0 0.00 0.00 0.00 61 1014.5
20260504005538 46 185 0.0 0.0 0.00 0.00 0.00 58 1014.3
20260504005036 46 185 0.0 1.0 0.00 0.00 0.00 59 1014.3
20260504004533 47 185 0.0 0.0 0.00 0.00 0.00 58 1014.3
20260504004030 47 185 0.0 0.0 0.00 0.00 0.00 53 1014.4
20260504003526 48 185 1.0 1.0 0.00 0.00 0.00 56 1014.3
20260504003023 48 185 0.0 0.0 0.00 0.00 0.00 55 1014.2
20260504002520 48 185 0.0 1.0 0.00 0.00 0.00 56 1014.2
20260504002018 48 185 0.0 1.0 0.00 0.00 0.00 56 1014.3
20260504001515 48 186 1.0 1.0 0.00 0.00 0.00 52 1014.5
20260504001011 49 185 0.0 0.0 0.00 0.00 0.00 50 1014.4
20260504000509 50 185 0.0 0.0 0.00 0.00 0.00 50 1014.6
20260504000006 50 187 0.0 0.0 0.00 0.00 0.00 48 1014.3
20260503235504 50 184 1.0 1.0 0.00 0.00 0.00 49 1014.5
20260503235001 50 185 1.0 1.0 0.00 0.00 0.00 46 1014.3
20260503234458 50 208 2.0 3.0 0.00 0.00 0.00 46 1014.3
20260503233956 51 185 0.0 0.0 0.00 0.00 0.00 47 1014.5
20260503233452 51 185 0.0 2.0 0.00 0.00 0.00 45 1014.5
20260503232948 51 187 1.0 3.0 0.00 0.00 0.00 44 1014.4
20260503232446 51 183 2.0 5.0 0.00 0.00 0.00 44 1014.3
20260503231943 51 204 2.0 5.0 0.00 0.00 0.00 44 1014.6
20260503231441 52 207 2.0 5.0 0.00 0.00 0.00 44 1014.5
20260503230937 52 222 1.0 3.0 0.00 0.00 0.00 44 1014.5
20260503230434 52 176 1.0 5.0 0.00 0.00 0.00 43 1014.5
20260503225932 52 196 2.0 5.0 0.00 0.00 0.00 42 1014.4
20260503225428 52 231 3.0 3.0 0.00 0.00 0.00 43 1014.5
20260503224924 52 215 3.0 3.0 0.00 0.00 0.00 43 1014.6
20260503224421 52 178 1.0 3.0 0.00 0.00 0.00 43 1014.4
20260503223919 52 217 5.0 6.0 0.00 0.00 0.00 42 1014.5
20260503223416 53 270 4.0 6.0 0.00 0.00 0.00 42 1014.6
20260503222911 53 230 5.0 6.0 0.00 0.00 0.00 42 1014.5
20260503222410 53 193 1.0 7.0 0.00 0.00 0.00 43 1014.5
20260503221908 53 181 1.0 3.0 0.00 0.00 0.00 42 1014.4
20260503221406 53 203 2.0 3.0 0.00 0.00 0.00 42 1014.6
20260503220902 53 192 2.0 7.0 0.00 0.00 0.00 42 1014.3
20260503220358 53 187 2.0 6.0 0.00 0.00 0.00 42 1014.6
20260503215855 53 187 1.0 2.0 0.00 0.00 0.00 42 1014.5
20260503215353 53 183 2.0 7.0 0.00 0.00 0.00 41 1014.4
20260503214850 53 219 4.0 6.0 0.00 0.00 0.00 40 1014.4
20260503214347 53 192 1.0 3.0 0.00 0.00 0.00 41 1014.4
20260503213844 54 171 2.0 6.0 0.00 0.00 0.00 40 1014.4
20260503213342 54 178 1.0 5.0 0.00 0.00 0.00 40 1014.5
20260503212839 54 252 6.0 8.0 0.00 0.00 0.00 40 1014.3
20260503212337 54 196 0.0 2.0 0.00 0.00 0.00 40 1014.4
20260503211834 55 228 5.0 6.0 0.00 0.00 0.00 39 1014.4
20260503211330 55 182 1.0 5.0 0.00 0.00 0.00 39 1014.3
20260503210825 56 198 1.0 3.0 0.00 0.00 0.00 39 1014.8
20260503210323 55 212 4.0 10.0 0.00 0.00 0.00 40 1014.5
20260503205818 55 225 4.0 6.0 0.00 0.00 0.00 39 1014.8
20260503205315 54 165 1.0 7.0 0.00 0.00 0.00 41 1014.6
20260503204811 55 195 0.0 3.0 0.00 0.00 0.00 40 1014.7
20260503204309 55 191 1.0 5.0 0.00 0.00 0.00 40 1015.1
20260503203806 54 204 3.0 3.0 0.00 0.00 0.00 39 1015.0
20260503203304 55 126 2.0 6.0 0.00 0.00 0.00 40 1014.9
20260503202800 55 100 2.0 6.0 0.00 0.00 0.00 42 1014.8
20260503202258 55 182 0.0 7.0 0.00 0.00 0.00 41 1014.8